TimeEDT,TemperatureF,Dew PointF,Humidity,Sea Level PressureIn,VisibilityMPH,Wind Direction,Wind SpeedMPH,Gust SpeedMPH,PrecipitationIn,Events,Conditions,WindDirDegrees,DateUTC
12:23 AM,55.4,55.4,100,30.03,1.5,Calm,Calm,-,N/A,,Partly Cloudy,0,2013-10-01 04:23:00
12:26 AM,55.4,55.4,100,30.03,0.8,Calm,Calm,-,N/A,,Scattered Clouds,0,2013-10-01 04:26:00
12:37 AM,57.2,55.4,94,30.03,1.5,Calm,Calm,-,N/A,,Partly Cloudy,0,2013-10-01 04:37:00
12:44 AM,57.2,55.4,94,30.03,7.0,Calm,Calm,-,N/A,,Partly Cloudy,0,2013-10-01 04:44:00
12:53 AM,57.0,55.0,93,30.03,5.0,Calm,Calm,-,N/A,,Scattered Clouds,0,2013-10-01 04:53:00
1:44 AM,55.4,55.4,100,30.03,1.8,Calm,Calm,-,N/A,,Partly Cloudy,0,2013-10-01 05:44:00
1:53 AM,55.0,55.0,100,30.03,2.5,Calm,Calm,-,N/A,,Partly Cloudy,0,2013-10-01 05:53:00
2:00 AM,55.4,53.6,94,30.04,3.0,Calm,Calm,-,N/A,,Partly Cloudy,0,2013-10-01 06:00:00
2:02 AM,55.4,53.6,94,30.04,1.8,Calm,Calm,-,N/A,,Clear,0,2013-10-01 06:02:00
2:06 AM,53.6,53.6,100,30.04,0.5,Calm,Calm,-,N/A,Fog,Fog,0,2013-10-01 06:06:00
2:53 AM,53.1,52.0,96,30.03,0.5,Calm,Calm,-,N/A,Fog,Fog,0,2013-10-01 06:53:00
2:57 AM,53.6,51.8,94,30.04,1.0,Calm,Calm,-,N/A,,Clear,0,2013-10-01 06:57:00
2:59 AM,53.6,51.8,94,30.04,2.0,Calm,Calm,-,N/A,,Clear,0,2013-10-01 06:59:00
3:01 AM,53.6,53.6,100,30.04,3.0,Calm,Calm,-,N/A,,Clear,0,2013-10-01 07:01:00
3:08 AM,53.6,53.6,100,30.04,2.5,Calm,Calm,-,N/A,,Partly Cloudy,0,2013-10-01 07:08:00
3:10 AM,53.6,53.6,100,30.04,1.2,Calm,Calm,-,N/A,,Partly Cloudy,0,2013-10-01 07:10:00
3:12 AM,53.6,51.8,94,30.04,0.8,Calm,Calm,-,N/A,,Mist,0,2013-10-01 07:12:00
3:53 AM,53.1,52.0,96,30.03,0.2,Calm,Calm,-,N/A,Fog,Fog,0,2013-10-01 07:53:00
4:12 AM,53.6,53.6,100,30.04,1.2,SE,3.5,-,N/A,,Scattered Clouds,130,2013-10-01 08:12:00
4:15 AM,53.6,51.8,94,30.04,2.5,Calm,Calm,-,N/A,,Partly Cloudy,0,2013-10-01 08:15:00
4:22 AM,51.8,51.8,100,30.04,5.0,Calm,Calm,-,N/A,,Partly Cloudy,0,2013-10-01 08:22:00
4:53 AM,53.1,52.0,96,30.04,1.8,Calm,Calm,-,0.01,,Clear,0,2013-10-01 08:53:00
4:59 AM,53.6,51.8,94,30.04,0.8,Calm,Calm,-,N/A,,Clear,0,2013-10-01 08:59:00
5:10 AM,53.6,51.8,94,30.04,1.2,Calm,Calm,-,N/A,,Clear,0,2013-10-01 09:10:00
5:13 AM,53.6,51.8,94,30.05,2.5,Calm,Calm,-,N/A,,Clear,0,2013-10-01 09:13:00
5:20 AM,53.6,51.8,94,30.05,4.0,Calm,Calm,-,N/A,,Clear,0,2013-10-01 09:20:00
5:25 AM,53.6,51.8,94,30.05,2.0,Calm,Calm,-,N/A,,Clear,0,2013-10-01 09:25:00
5:34 AM,53.6,53.6,100,30.05,4.0,Calm,Calm,-,N/A,,Clear,0,2013-10-01 09:34:00
5:53 AM,52.0,52.0,100,30.05,1.5,Calm,Calm,-,N/A,,Clear,0,2013-10-01 09:53:00
5:58 AM,51.8,51.8,100,30.06,0.8,Calm,Calm,-,N/A,,Clear,0,2013-10-01 09:58:00
6:04 AM,51.8,51.8,100,30.06,1.2,Calm,Calm,-,N/A,,Clear,0,2013-10-01 10:04:00
6:09 AM,51.8,51.8,100,30.06,3.0,Calm,Calm,-,N/A,,Clear,0,2013-10-01 10:09:00
6:19 AM,51.8,51.8,100,30.06,2.0,Calm,Calm,-,N/A,,Clear,0,2013-10-01 10:19:00
6:26 AM,51.8,51.8,100,30.06,1.5,Calm,Calm,-,N/A,,Clear,0,2013-10-01 10:26:00
6:40 AM,51.8,51.8,100,30.07,0.8,Calm,Calm,-,N/A,,Clear,0,2013-10-01 10:40:00
6:53 AM,52.0,51.1,97,30.07,1.0,Calm,Calm,-,N/A,,Clear,0,2013-10-01 10:53:00
6:58 AM,53.6,51.8,94,30.07,2.0,Calm,Calm,-,N/A,,Clear,0,2013-10-01 10:58:00
7:08 AM,53.6,51.8,94,30.08,1.0,Calm,Calm,-,N/A,,Clear,0,2013-10-01 11:08:00
7:16 AM,51.8,51.8,100,30.08,0.5,Calm,Calm,-,N/A,Fog,Fog,0,2013-10-01 11:16:00
7:48 AM,51.8,51.8,100,30.09,0.2,Calm,Calm,-,N/A,Fog,Fog,0,2013-10-01 11:48:00
7:53 AM,52.0,51.1,97,30.09,0.2,Calm,Calm,-,N/A,Fog,Fog,0,2013-10-01 11:53:00
8:08 AM,53.6,51.8,94,30.10,2.0,Calm,Calm,-,N/A,,Partly Cloudy,0,2013-10-01 12:08:00
8:17 AM,53.6,53.6,100,30.10,3.0,Calm,Calm,-,N/A,,Partly Cloudy,0,2013-10-01 12:17:00
8:53 AM,59.0,57.0,93,30.10,7.0,Calm,Calm,-,N/A,,Clear,0,2013-10-01 12:53:00
9:53 AM,66.9,62.1,84,30.10,8.0,SW,4.6,-,N/A,,Clear,220,2013-10-01 13:53:00
10:53 AM,71.1,62.1,73,30.10,10.0,WSW,8.1,-,N/A,,Clear,240,2013-10-01 14:53:00
11:53 AM,73.0,59.0,61,30.09,10.0,SW,9.2,-,N/A,,Clear,230,2013-10-01 15:53:00
12:53 PM,75.9,60.1,58,30.08,10.0,WNW,6.9,-,N/A,,Mostly Cloudy,290,2013-10-01 16:53:00
1:53 PM,75.0,57.9,55,30.06,10.0,WSW,12.7,-,N/A,,Mostly Cloudy,240,2013-10-01 17:53:00
2:53 PM,75.9,57.9,54,30.05,10.0,West,8.1,-,N/A,,Mostly Cloudy,280,2013-10-01 18:53:00
3:53 PM,75.9,57.9,54,30.04,10.0,SW,5.8,16.1,N/A,,Partly Cloudy,230,2013-10-01 19:53:00
4:53 PM,75.9,57.0,52,30.02,10.0,West,10.4,-,N/A,,Scattered Clouds,260,2013-10-01 20:53:00
5:53 PM,75.0,57.9,55,30.03,10.0,WSW,6.9,-,N/A,,Partly Cloudy,240,2013-10-01 21:53:00
6:53 PM,72.0,57.9,61,30.03,10.0,SW,4.6,-,N/A,,Clear,220,2013-10-01 22:53:00
7:53 PM,66.0,57.9,75,30.04,10.0,Calm,Calm,-,N/A,,Partly Cloudy,0,2013-10-01 23:53:00
8:53 PM,60.1,55.9,86,30.05,10.0,Calm,Calm,-,N/A,,Clear,0,2013-10-02 00:53:00
9:53 PM,57.9,55.0,90,30.05,10.0,Calm,Calm,-,N/A,,Clear,0,2013-10-02 01:53:00
10:53 PM,57.0,55.0,93,30.06,10.0,Calm,Calm,-,N/A,,Clear,0,2013-10-02 02:53:00
11:53 PM,57.0,55.0,93,30.06,10.0,Calm,Calm,-,N/A,,Clear,0,2013-10-02 03:53:00